Location: Christchurch
(43.5330°S, 172.6330°E)
Time: 13:15:08
(UTC+13:00)

Cosmos 2322 - Pass Details

Date: 24 January 2019
Orbit: 839 x 856 km, 71.0° (Epoch: 16 February)

Event Time Altitude Azimuth Distance (km) Brightness Sun altitude
Exits shadow 23:18:14 18° 344° (NNW) 1,985 5.3 -19.2°
Maximum altitude 23:22:36 78° 67° (ENE) 878 3.6 -19.6°
Drops below altitude 10° 23:28:20 10° 152° (SSE) 2,494 6.5 -20.2°
Sets 23:30:48 0° 153° (SSE) 3,434 7.3 -20.5°
